When you browse on this site, cookies collect data to enhance your experience and personalize the content and advertising you see.
Visit our Privacy Policy to learn more. By continuing to use the site, you agree to this use of cookies and data.
  • In Czech Republic
  • List of Countries
  • For 7 days
  • Water Temperature
  • Weather Map
  • Weather Widgets
  • user-avatar
    Login

    Hourly Weather Linz

    Today, 23 August, Friday

    Time Temperature Precipitation Wind Pressure Humidity
    00:00 +14°C° 0 mm 0 mps 740 mmHg 92%
    01:00 +14°C° 0 mm 0 mps 741 mmHg 93%
    02:00 +14°C° 0 mm 0 mps 740 mmHg 93%
    03:00 +14°C° 0 mm 0 mps 740 mmHg 94%
    04:00 +14°C° 0 mm 0 mps 740 mmHg 94%
    05:00 +15°C° 0 mm 0 mps 740 mmHg 92%
    06:00 +15°C° 0 mm 0 mps 740 mmHg 90%
    07:00 +18°C° 0 mm 1 mps 741 mmHg 88%
    08:00 +20°C° 0 mm 1 mps 741 mmHg 82%
    09:00 +21°C° 0 mm 2 mps 741 mmHg 76%
    10:00 +22°C° 0 mm 3 mps 741 mmHg 70%
    11:00 +24°C° 0 mm 3 mps 740 mmHg 67%
    12:00 +25°C° 0 mm 3 mps 740 mmHg 64%
    13:00 +26°C° 0 mm 3 mps 740 mmHg 62%
    14:00 +26°C° 0 mm 3 mps 739 mmHg 63%
    15:00 +26°C° 0 mm 3 mps 739 mmHg 65%
    16:00 +26°C° 0 mm 3 mps 739 mmHg 67%
    17:00 +25°C° 0.1 mm 2 mps 739 mmHg 72%
    18:00 +23°C° 0.1 mm 2 mps 739 mmHg 78%
    19:00 +22°C° 0.1 mm 1 mps 738 mmHg 84%
    20:00 +21°C° 0.2 mm 1 mps 738 mmHg 85%
    21:00 +20°C° 0.2 mm 2 mps 739 mmHg 86%
    22:00 +19°C° 0.2 mm 2 mps 739 mmHg 88%
    23:00 +19°C° 0 mm 2 mps 738 mmHg 89%

    Tomorrow, 24 August, Saturday

    Time Temperature Precipitation Wind Pressure Humidity
    00:00 +19°C° 0 mm 1 mps 738 mmHg 91%
    01:00 +19°C° 0 mm 1 mps 738 mmHg 92%
    02:00 +19°C° 0 mm 1 mps 738 mmHg 93%
    03:00 +18°C° 0 mm 1 mps 738 mmHg 93%
    04:00 +18°C° 0 mm 1 mps 737 mmHg 94%
    05:00 +19°C° 0 mm 1 mps 737 mmHg 93%
    06:00 +19°C° 0 mm 1 mps 737 mmHg 92%
    07:00 +20°C° 0 mm 1 mps 737 mmHg 90%
    08:00 +21°C° 0 mm 1 mps 737 mmHg 85%
    09:00 +23°C° 0 mm 2 mps 737 mmHg 80%
    10:00 +25°C° 0 mm 2 mps 737 mmHg 74%
    11:00 +26°C° 0 mm 2 mps 737 mmHg 70%
    12:00 +27°C° 0 mm 2 mps 737 mmHg 66%
    13:00 +29°C° 0 mm 2 mps 736 mmHg 62%
    14:00 +29°C° 0 mm 2 mps 736 mmHg 61%
    15:00 +30°C° 0 mm 2 mps 736 mmHg 59%
    16:00 +30°C° 0 mm 2 mps 736 mmHg 58%
    17:00 +28°C° 0.2 mm 2 mps 736 mmHg 64%
    18:00 +26°C° 0.2 mm 2 mps 736 mmHg 70%
    19:00 +24°C° 0.2 mm 2 mps 736 mmHg 76%
    20:00 +23°C° 0 mm 2 mps 736 mmHg 77%
    21:00 +21°C° 0 mm 2 mps 736 mmHg 79%
    22:00 +20°C° 0 mm 2 mps 736 mmHg 81%
    23:00 +21°C° 0 mm 1 mps 736 mmHg 83%

    Day after tomorrow, 25 August, Sunday

    Time Temperature Precipitation Wind Pressure Humidity
    00:00 +20°C° 0 mm 1 mps 736 mmHg 84%
    01:00 +20°C° 0 mm 1 mps 736 mmHg 86%
    02:00 +19°C° 0 mm 1 mps 735 mmHg 87%
    03:00 +17°C° 0 mm 0 mps 735 mmHg 88%
    04:00 +16°C° 0 mm 0 mps 735 mmHg 88%
    05:00 +17°C° 0 mm 0 mps 735 mmHg 86%
    06:00 +18°C° 0 mm 0 mps 735 mmHg 84%
    07:00 +19°C° 0 mm 0 mps 735 mmHg 82%
    08:00 +21°C° 0 mm 0 mps 736 mmHg 76%
    09:00 +23°C° 0 mm 0 mps 736 mmHg 70%
    10:00 +25°C° 0 mm 0 mps 736 mmHg 64%
    11:00 +28°C° 0 mm 1 mps 736 mmHg 61%
    12:00 +29°C° 0 mm 1 mps 736 mmHg 57%
    13:00 +30°C° 0 mm 1 mps 736 mmHg 53%
    14:00 +30°C° 0.1 mm 1 mps 735 mmHg 53%
    15:00 +30°C° 0.1 mm 1 mps 735 mmHg 53%
    16:00 +30°C° 0.1 mm 1 mps 735 mmHg 52%
    17:00 +28°C° 0 mm 1 mps 735 mmHg 59%
    18:00 +26°C° 0 mm 1 mps 735 mmHg 66%
    19:00 +24°C° 0 mm 1 mps 735 mmHg 72%
    20:00 +23°C° 0.1 mm 1 mps 735 mmHg 75%
    21:00 +22°C° 0.1 mm 1 mps 735 mmHg 77%
    22:00 +21°C° 0.1 mm 1 mps 736 mmHg 79%
    23:00 +21°C° 0.4 mm 1 mps 736 mmHg 81%

    26 August, Monday

    Time Temperature Precipitation Wind Pressure Humidity
    00:00 +20°C° 0.4 mm 1 mps 736 mmHg 83%
    01:00 +18°C° 0.4 mm 0 mps 736 mmHg 85%
    02:00 +17°C° 0.1 mm 0 mps 736 mmHg 86%
    03:00 +17°C° 0.1 mm 0 mps 736 mmHg 87%
    04:00 +17°C° 0.1 mm 0 mps 735 mmHg 88%
    05:00 +18°C° 0 mm 0 mps 736 mmHg 86%
    06:00 +18°C° 0 mm 0 mps 736 mmHg 85%
    07:00 +19°C° 0 mm 0 mps 736 mmHg 83%
    08:00 +21°C° 0 mm 0 mps 736 mmHg 78%
    09:00 +25°C° 0 mm 1 mps 736 mmHg 72%
    10:00 +27°C° 0 mm 1 mps 736 mmHg 67%
    11:00 +28°C° 0 mm 1 mps 736 mmHg 63%
    12:00 +29°C° 0 mm 1 mps 736 mmHg 59%
    13:00 +30°C° 0 mm 2 mps 735 mmHg 54%
    14:00 +30°C° 0.1 mm 2 mps 735 mmHg 54%
    15:00 +30°C° 0.1 mm 2 mps 735 mmHg 54%
    16:00 +31°C° 0.1 mm 2 mps 735 mmHg 54%
    17:00 +29°C° 0 mm 2 mps 735 mmHg 60%
    18:00 +27°C° 0 mm 2 mps 734 mmHg 66%
    19:00 +25°C° 0 mm 1 mps 734 mmHg 72%
    20:00 +24°C° 0 mm 1 mps 735 mmHg 74%
    21:00 +23°C° 0 mm 1 mps 735 mmHg 76%
    22:00 +22°C° 0 mm 1 mps 735 mmHg 77%
    23:00 +21°C° 0 mm 1 mps 735 mmHg 79%

    27 August, Tuesday

    Time Temperature Precipitation Wind Pressure Humidity
    00:00 +21°C° 0 mm 1 mps 735 mmHg 81%
    01:00 +20°C° 0 mm 1 mps 735 mmHg 83%
    02:00 +20°C° 0 mm 1 mps 735 mmHg 84%
    03:00 +19°C° 0 mm 1 mps 735 mmHg 85%
    04:00 +17°C° 0 mm 0 mps 735 mmHg 87%
    05:00 +18°C° 0 mm 0 mps 735 mmHg 84%
    06:00 +19°C° 0 mm 0 mps 735 mmHg 82%
    07:00 +20°C° 0 mm 0 mps 735 mmHg 80%
    08:00 +23°C° 0 mm 1 mps 735 mmHg 74%
    09:00 +25°C° 0 mm 1 mps 735 mmHg 68%
    10:00 +27°C° 0 mm 1 mps 735 mmHg 62%
    11:00 +28°C° 0 mm 1 mps 735 mmHg 58%
    12:00 +29°C° 0 mm 2 mps 735 mmHg 55%
    13:00 +31°C° 0 mm 2 mps 735 mmHg 51%
    14:00 +31°C° 0 mm 2 mps 735 mmHg 50%
    15:00 +31°C° 0 mm 1 mps 734 mmHg 49%
    16:00 +32°C° 0 mm 1 mps 734 mmHg 48%
    17:00 +30°C° 0 mm 1 mps 734 mmHg 55%
    18:00 +28°C° 0 mm 1 mps 734 mmHg 62%
    19:00 +25°C° 0 mm 2 mps 734 mmHg 69%
    20:00 +24°C° 0 mm 1 mps 734 mmHg 72%
    21:00 +23°C° 0 mm 1 mps 734 mmHg 74%
    22:00 +22°C° 0 mm 1 mps 735 mmHg 77%
    23:00 +22°C° 0 mm 1 mps 735 mmHg 79%

    28 August, Wednesday

    Time Temperature Precipitation Wind Pressure Humidity
    00:00 +21°C° 0 mm 1 mps 735 mmHg 81%
    01:00 +21°C° 0 mm 1 mps 735 mmHg 83%
    02:00 +20°C° 0 mm 1 mps 734 mmHg 84%
    03:00 +20°C° 0 mm 1 mps 734 mmHg 85%
    04:00 +20°C° 0 mm 1 mps 734 mmHg 86%
    05:00 +18°C° 0 mm 0 mps 734 mmHg 83%
    06:00 +19°C° 0 mm 0 mps 735 mmHg 81%
    07:00 +20°C° 0 mm 0 mps 735 mmHg 78%
    08:00 +24°C° 0 mm 1 mps 735 mmHg 73%
    09:00 +26°C° 0 mm 1 mps 735 mmHg 67%
    10:00 +27°C° 0 mm 1 mps 735 mmHg 61%
    11:00 +28°C° 0.1 mm 2 mps 735 mmHg 59%
    12:00 +29°C° 0.1 mm 2 mps 735 mmHg 58%
    13:00 +30°C° 0.1 mm 2 mps 735 mmHg 57%
    14:00 +30°C° 0.2 mm 2 mps 735 mmHg 57%
    15:00 +30°C° 0.2 mm 1 mps 734 mmHg 57%
    16:00 +30°C° 0.2 mm 1 mps 734 mmHg 57%
    17:00 +28°C° 0.7 mm 1 mps 735 mmHg 64%
    18:00 +26°C° 0.7 mm 1 mps 735 mmHg 72%
    19:00 +25°C° 0.7 mm 1 mps 735 mmHg 80%
    20:00 +24°C° 0.8 mm 2 mps 735 mmHg 83%
    21:00 +23°C° 0.8 mm 2 mps 736 mmHg 86%
    22:00 +21°C° 0.8 mm 2 mps 736 mmHg 90%
    23:00 +21°C° 0.5 mm 2 mps 736 mmHg 91%
    Show more